TimeEST,TemperatureF,Dew PointF,Humidity,Sea Level PressureIn,VisibilityMPH,Wind Direction,Wind SpeedMPH,Gust SpeedMPH,PrecipitationIn,Events,Conditions,WindDirDegrees,DateUTC
12:52 AM,32.0,27.0,82,29.54,10.0,NW,10.4,-,N/A,,Mostly Cloudy,320,2012-12-30 05:52:00
1:52 AM,30.0,23.0,75,29.56,10.0,NW,10.4,19.6,N/A,,Clear,310,2012-12-30 06:52:00
2:52 AM,30.0,23.0,75,29.59,10.0,NW,13.8,19.6,N/A,,Clear,310,2012-12-30 07:52:00
3:52 AM,28.9,23.0,78,29.62,10.0,WNW,15.0,-,N/A,,Clear,300,2012-12-30 08:52:00
4:52 AM,28.9,23.0,78,29.64,10.0,WNW,15.0,-,N/A,,Clear,290,2012-12-30 09:52:00
5:52 AM,28.9,21.0,72,29.65,10.0,WNW,21.9,31.1,N/A,,Clear,290,2012-12-30 10:52:00
6:52 AM,28.9,19.9,69,29.71,10.0,WNW,17.3,23.0,N/A,,Clear,300,2012-12-30 11:52:00
7:17 AM,28.4,19.4,69,29.72,2.5,WNW,17.3,-,0.20,,Haze,290,2012-12-30 12:17:00
7:24 AM,28.4,19.4,69,29.73,10.0,WNW,18.4,27.6,0.20,,Clear,290,2012-12-30 12:24:00
7:52 AM,28.4,19.4,69,29.74,10.0,WNW,17.3,25.3,N/A,,Clear,300,2012-12-30 12:52:00
8:52 AM,28.9,19.0,67,29.78,10.0,NW,15.0,24.2,N/A,,Clear,310,2012-12-30 13:52:00
9:52 AM,30.0,19.0,64,29.84,10.0,WNW,11.5,-,N/A,,Clear,300,2012-12-30 14:52:00
10:52 AM,30.9,19.0,61,29.85,10.0,WNW,16.1,23.0,0.02,,Clear,300,2012-12-30 15:52:00
11:52 AM,33.1,19.0,56,29.84,10.0,WNW,19.6,28.8,N/A,,Partly Cloudy,300,2012-12-30 16:52:00
12:52 PM,34.0,19.0,54,29.84,10.0,NW,24.2,31.1,N/A,,Clear,310,2012-12-30 17:52:00
1:52 PM,34.0,17.1,50,29.84,10.0,WNW,24.2,35.7,N/A,,Partly Cloudy,290,2012-12-30 18:52:00
2:52 PM,34.0,16.0,48,29.88,10.0,WNW,17.3,26.5,N/A,,Clear,290,2012-12-30 19:52:00
3:52 PM,33.1,14.0,46,29.91,10.0,WNW,18.4,26.5,N/A,,Clear,290,2012-12-30 20:52:00
4:52 PM,30.9,15.1,52,29.96,10.0,West,12.7,20.7,N/A,,Clear,280,2012-12-30 21:52:00
5:52 PM,30.0,14.0,51,30.00,10.0,WNW,15.0,27.6,N/A,,Clear,300,2012-12-30 22:52:00
6:52 PM,30.0,14.0,51,30.04,10.0,WNW,18.4,21.9,N/A,,Clear,300,2012-12-30 23:52:00
7:52 PM,28.9,12.9,51,30.08,10.0,WNW,10.4,20.7,N/A,,Clear,300,2012-12-31 00:52:00
8:52 PM,28.0,12.9,53,30.08,10.0,NW,13.8,23.0,N/A,,Clear,320,2012-12-31 01:52:00
9:52 PM,28.0,12.9,53,30.10,10.0,WNW,13.8,18.4,N/A,,Clear,300,2012-12-31 02:52:00
10:52 PM,28.0,12.0,51,30.11,10.0,West,6.9,-,N/A,,Clear,280,2012-12-31 03:52:00
11:52 PM,27.0,12.0,53,30.12,10.0,WNW,9.2,-,N/A,,Clear,290,2012-12-31 04:52:00